Regional Weather Roundup
Issued by NWS

Home | Current Version | Previous Version | Graphics & Text | Print | Product List | Glossary On
Versions: 1 2 3 4 5 6 7 8 9 10 11 12 13 14 15 16 17 18 19 20 21 22 23 24 25 26 27 28 29 30 31 32 33 34 35 36 37 38 39 40 41 42 43 44 45 46 47 48 49 50
000
ASUS43 KBIS 270220
RWRND

NORTH DAKOTA REGIONAL WEATHER ROUNDUP
NATIONAL WEATHER SERVICE BISMARCK ND
800 PM CST FRI DEC 26 2014

NOTE: "FAIR" INDICATES FEW OR NO CLOUDS BELOW 12,000 FEET WITH NO
SIGNIFICANT WEATHER AND/OR OBSTRUCTIONS TO VISIBILITY.


NDZ001>003-009>011-017-270300-
NORTHWEST NORTH DAKOTA

CITY           SKY/WX    TMP DP  RH WIND       PRES   REMARKS
WILLISTON      CLOUDY    20  14  77 S5        30.13S WCI  13
MINOT          CLOUDY     8   2  76 SE3       30.16F
MINOT AFB      CLOUDY     6   2  84 S3        30.17S
$$

NDZ018>021-031>035-040>046-270300-
SOUTHWEST NORTH DAKOTA

CITY           SKY/WX    TMP DP  RH WIND       PRES   REMARKS
BISMARCK       CLEAR      3   1  91 E5        30.20S WCI  -6
DICKINSON      PTCLDY    12   5  73 CALM      30.10F
GARRISON         N/A      8   5  87 CALM      30.16S
HETTINGER ARPT CLEAR      5   2  87 CALM      30.12S
$$

NDZ004>008-012>016-024-026-027-054-270300-
NORTHEAST NORTH DAKOTA

CITY           SKY/WX    TMP DP  RH WIND       PRES   REMARKS
GRAND FORKS    MOCLDY     7   3  85 NW8       30.25R WCI  -6
GRND FRKS AFB  MOCLDY     3   1  92 N6        30.25S WCI  -8
DEVILS LAKE    PTCLDY     3  -2  78 W3        30.18S
$$

NDZ022-023-025-028>030-036>039-047>053-270300-
SOUTHEAST NORTH DAKOTA

CITY           SKY/WX    TMP DP  RH WIND       PRES   REMARKS
FARGO          MOCLDY    12   5  73 NW14      30.24R WCI  -3
JAMESTOWN      PTCLDY     4   1  88 NW5       30.20S WCI  -5
$$



USA.gov is the U.S. government's official web portal to all federal, state and local government web resources and services.